Weather History for Tampa, FL

Change the Weather History Date:

Sunday, August 19, 2012

  Actual Average Record
Temperature  
Mean Temperature 84 °F 83 °F  
Max Temperature 91 °F 90 °F 96 °F (2007)
Min Temperature 77 °F 76 °F 68 °F (1947)
Degree Days  
Heating Degree Days 0 0  
Month to date heating degree days 0 0  
Since 1 June heating degree days 0 0  
Since 1 July heating degree days 0 0  
Cooling Degree Days 19 18  
Month to date cooling degree days 363 342  
Year to date cooling degree days 2705 2293  
Since 1 June cooling degree days 1413 1416  
Growing Degree Days 34 (Base 50)    
Moisture  
Dew Point 75 °F    
Average Humidity 74    
Maximum Humidity 91    
Minimum Humidity 56    
Precipitation  
Precipitation 0.17 in 0.25 in 3.44 in (1972)
Month to date precipitation 2.81 4.74  
Year to date precipitation 38.70 30.69  
Sea Level Pressure  
Sea Level Pressure 29.97 in    
Wind  
Wind Speed 8 mph (SSW)    
Max Wind Speed 32 mph    
Max Gust Speed 41 mph    
Visibility 10 miles    
Events Rain , Thunderstorm    
T = Trace of Precipitation, MM = Missing Value Source: NWS Daily Summary

Daily Weather History Graph

Daily Weather History Graph

Search for Another Location

Airport:

Trip Planner

Search our weather history database for the weather conditions in past years. The results will help you decide how hot, cold, wet, or windy it might be!

Date:

Astronomy

Aug. 19, 2012 Rise Set
Actual Time 7:02 AM EDT 8:04 PM EDT
Civil Twilight 6:38 AM EDT 8:28 PM EDT
Nautical Twilight 6:09 AM EDT 8:57 PM EDT
Astronomical Twilight 5:39 AM EDT 9:26 PM EDT
Moon 8:58 AM EDT (8/19) 9:13 PM EDT (8/19)
Length of Visible Light 13h 50m
Length of Day
13h 01m
Waxing Crescent, 5% of the Moon is Illuminated
Aug 19
Waxing Crescent
Aug 24
First Quarter
Aug 31
Full
Sep 8
Last Quarter
Sep 15
New

Hourly Weather History & Observations

Time (EDT) Temp. Heat Index Dew Point Humidity Pressure Visibility Wind Dir Wind Speed Gust Speed Precip Events Conditions
12:53 AM 79.0 °F - 75.0 °F 88% 29.99 in 10.0 mi South 6.9 mph - N/A   Scattered Clouds
1:53 AM 79.0 °F - 75.0 °F 88% 29.98 in 10.0 mi Calm Calm - N/A   Scattered Clouds
2:53 AM 78.1 °F - 75.0 °F 90% 29.96 in 10.0 mi SSE 3.5 mph - N/A   Scattered Clouds
3:53 AM 78.1 °F - 75.0 °F 90% 29.96 in 10.0 mi SSE 4.6 mph - N/A   Scattered Clouds
4:53 AM 79.0 °F - 75.0 °F 88% 29.95 in 10.0 mi SSE 5.8 mph - N/A   Scattered Clouds
5:53 AM 79.0 °F - 75.0 °F 88% 29.96 in 10.0 mi SSE 5.8 mph - N/A   Scattered Clouds
6:53 AM 79.0 °F - 75.9 °F 90% 29.96 in 10.0 mi SSE 5.8 mph - N/A   Scattered Clouds
7:53 AM 80.1 °F 85.4 °F 75.9 °F 87% 29.97 in 10.0 mi SSE 3.5 mph - N/A   Overcast
8:53 AM 82.9 °F 91.8 °F 77.0 °F 82% 29.98 in 10.0 mi South 9.2 mph - N/A   Overcast
9:53 AM 84.9 °F 95.3 °F 77.0 °F 77% 29.98 in 10.0 mi South 8.1 mph - N/A   Mostly Cloudy
10:53 AM 88.0 °F 100.2 °F 77.0 °F 70% 29.99 in 10.0 mi South 10.4 mph - N/A   Mostly Cloudy
11:22 AM 87.8 °F 97.6 °F 75.2 °F 66% 29.97 in 10.0 mi SSW 11.5 mph - N/A   Mostly Cloudy
11:37 AM 89.6 °F 99.8 °F 75.2 °F 62% 29.97 in 10.0 mi SSW 10.4 mph - 0.00 in   Scattered Clouds
11:53 AM 88.0 °F 98.5 °F 75.9 °F 67% 29.97 in 10.0 mi SSW 12.7 mph - 0.00 in   Mostly Cloudy
12:53 PM 91.0 °F 100.4 °F 73.9 °F 57% 29.96 in 10.0 mi SSW 15.0 mph - N/A   Mostly Cloudy
1:53 PM 90.0 °F 100.2 °F 75.0 °F 61% 29.95 in 10.0 mi SSW 12.7 mph - N/A   Scattered Clouds
2:53 PM 91.0 °F 101.6 °F 75.0 °F 59% 29.94 in 10.0 mi SW 15.0 mph - N/A   Scattered Clouds
3:53 PM 90.0 °F 101.3 °F 75.9 °F 63% 29.94 in 10.0 mi SW 15.0 mph 20.7 mph N/A   Partly Cloudy
4:49 PM 87.8 °F 97.6 °F 75.2 °F 66% 29.94 in 10.0 mi WSW 15.0 mph - N/A Thunderstorm Thunderstorm
4:53 PM 86.0 °F 96.0 °F 75.9 °F 72% 29.94 in 9.0 mi SW 21.9 mph 33.4 mph N/A Thunderstorm Thunderstorm
5:00 PM 80.6 °F 85.4 °F 73.4 °F 79% 29.95 in 2.0 mi South 18.4 mph 41.4 mph 0.04 in Rain , Thunderstorm Light Thunderstorms and Rain
5:07 PM 78.8 °F - 73.4 °F 83% 29.94 in 8.0 mi South 10.4 mph 28.8 mph 0.13 in Rain , Thunderstorm Light Thunderstorms and Rain
5:53 PM 82.9 °F 90.8 °F 75.9 °F 79% 29.94 in 10.0 mi SW 6.9 mph - 0.17 in   Mostly Cloudy
6:53 PM 84.9 °F 93.3 °F 75.0 °F 72% 29.94 in 10.0 mi WSW 10.4 mph - N/A   Mostly Cloudy
7:53 PM 84.9 °F 92.1 °F 73.9 °F 69% 29.97 in 10.0 mi WSW 10.4 mph - N/A   Overcast
8:53 PM 84.0 °F 91.9 °F 75.0 °F 74% 29.98 in 10.0 mi West 9.2 mph - N/A   Overcast
9:20 PM 78.8 °F - 71.6 °F 78% 30.00 in 10.0 mi North 16.1 mph 24.2 mph N/A   Mostly Cloudy
9:53 PM 78.1 °F - 73.0 °F 84% 30.01 in 10.0 mi NNE 5.8 mph - N/A   Mostly Cloudy
10:53 PM 78.1 °F - 73.9 °F 87% 30.00 in 10.0 mi Calm Calm - 0.00 in   Mostly Cloudy
11:53 PM 78.1 °F - 73.9 °F 87% 30.00 in 10.0 mi Calm Calm - N/A   Mostly Cloudy